Location: G�ppingen
(48.7089°N, 9.6563°E)
Time: 09:58:02
(UTC+02:00)

ISS - Pass Details

Date: 11 February 2018
Orbit: 402 x 406 km, 51.6° (Epoch: 18 June)

Event Time Altitude Azimuth Distance (km) Brightness Sun altitude
Rises 19:16:30 0° 285° (WNW) 2,320 1.5 -17.1°
Reaches altitude 10° 19:19:03 10° 264° (W) 1,458 0.3 -17.5°
Maximum altitude 19:21:16 17° 221° (SW) 1,100 -1.1 -17.9°
Drops below altitude 10° 19:23:29 10° 178° (S) 1,453 -1.0 -18.2°
Enters shadow 19:24:05 - 171° (S) 1,632 -0.9 -18.3°
